Location: Boiro
(42.6475°N, 8.8834°W)
Time: 01:13:56
(UTC+01:00)

S-56A Canister/Altair - Pass Details

Date: 09 December 2021
Orbit: 634 x 2499 km, 38.9° (Epoch: 26 January)

Event Time Altitude Azimuth Distance (km) Brightness Sun altitude
Rises 22:45:54 0° 225° (SW) 6,059 12.3 -51.1°
Reaches altitude 10° 22:50:21 10° 220° (SW) 4,908 11.7 -51.9°
Enters shadow 22:54:32 22° 212° (SSW) 3,846 11.0 -52.6°
